Regional Weather Roundup
Issued by NWS

Home | Current Version | Previous Version | Text Only | Print | Product List | Glossary On
Versions: 1 2 3 4 5 6 7 8 9 10 11 12 13 14 15 16 17 18 19 20 21 22 23 24 25 26 27 28 29 30 31 32 33 34 35 36 37 38 39 40 41 42 43 44 45 46 47 48 49 50
000
ASUS43 KTOP 251159
RWRKS

WEATHER ROUNDUP FOR KANSAS
NATIONAL WEATHER SERVICE GOODLAND KS
700 AM CDT SAT OCT 25 2014

NOTE:  "FAIR" INDICATES FEW OR NO CLOUDS BELOW 12,000 FEET WITH NO
SIGNIFICANT WEATHER AND/OR OBSTRUCTIONS TO VISIBILITY.

KSZ001>006-013>018-027>032-041>047-251300-
NORTHWEST KANSAS

CITY           SKY/WX    TMP DP  RH WIND       PRES   REMARKS
GOODLAND       CLEAR     45  34  65 W7        30.13R
6HR MIN TEMP:  42; 6HR MAX TEMP:  50;

HAYS           CLEAR     46  41  81 W5        30.05S
HILL CITY      CLEAR     42  38  85 SW5       30.06S
6HR MIN TEMP:  42; 6HR MAX TEMP:  50;

RUSSELL        CLEAR     49  48  97 S5        30.03S
6HR MIN TEMP:  49; 6HR MAX TEMP:  61;

$$

KSZ061>065-074>080-084>089-251300-
SOUTHWEST KANSAS

CITY           SKY/WX    TMP DP  RH WIND       PRES   REMARKS
DODGE CITY     CLEAR     52  44  74 SW9       30.08S
6HR MIN TEMP:  51; 6HR MAX TEMP:  62;

ELKHART          N/A     57  36  45 W9          N/A
GARDEN CITY    CLEAR     52  42  69 SW3       30.08S
6HR MIN TEMP:  51; 6HR MAX TEMP:  59;

GREAT BEND     CLEAR     46  43  87 CALM      30.06S
LIBERAL        CLEAR     48  37  66 W7        30.09F
$$

KSZ066>073-081>083-090>101-251300-
SOUTHEAST KANSAS

CITY           SKY/WX    TMP DP  RH WIND       PRES   REMARKS
CHANUTE        FOG       53  53 100 CALM      30.05S VSB<1/4
6HR MIN TEMP:  52; 6HR MAX TEMP:  62;

COFFEYVILLE    FOG       57  57 100 S5        30.05R VSB 1/4
6HR MIN TEMP:  57; 6HR MAX TEMP:  63;

HUTCHINSON     FOG       52  50  93 CALM      30.05S VSB 3/4
6HR MIN TEMP:  51; 6HR MAX TEMP:  65;

NEWTON         CLEAR     55  52  88 SE5       30.07S
PARSONS        CLEAR     58  58 100 CALM      30.07R FOG
6HR MIN TEMP:  56; 6HR MAX TEMP:  62;

WICHITA INTL   FOG       57  55  93 N3        30.04R VSB 1/2
6HR MIN TEMP:  54; 6HR MAX TEMP:  61;

WICHITA JABRA  FOG       54  53  97 CALM      30.04S VSB 1/4
6HR MIN TEMP:  52; 6HR MAX TEMP:  67;

WICHITA MCCONL FOG       55  55 100 NE3       30.05R VSB 1
WINFIELD       CLEAR     59  58  96 SE3       30.05S
6HR MIN TEMP:  57; 6HR MAX TEMP:  64;

$$

KSZ007>012-019>026-033>040-048>060-102>105-251300-
NORTHEAST KANSAS

CITY           SKY/WX    TMP DP  RH WIND       PRES   REMARKS
CONCORDIA      CLEAR     52  51  97 CALM      30.04S
6HR MIN TEMP:  51; 6HR MAX TEMP:  59;

EMPORIA        CLEAR     55  55 100 S6        30.04S FOG
6HR MIN TEMP:  53; 6HR MAX TEMP:  65;

LAWRENCE       FOG       49  49 100 N5        30.05R VSB 1/4
6HR MIN TEMP:  49; 6HR MAX TEMP:  54;

MANHATTAN      FOG       53  53 100 N3        30.04R VSB 1/4
6HR MIN TEMP:  50; 6HR MAX TEMP:  59;

OLATHE IND     CLOUDY    53  52  96 CALM      30.05S FOG
6HR MIN TEMP:  51; 6HR MAX TEMP:  62;

OLATHE EXE     FOG       52  52 100 CALM      30.04R VSB 1/4
6HR MIN TEMP:  52; 6HR MAX TEMP:  62;

SALINA         PTCLDY    53  51  93 S5        30.04R FOG
6HR MIN TEMP:  52; 6HR MAX TEMP:  63;

TOPEKA BILLARD FOG       53  53 100 CALM      30.05R VSB 1/4
6HR MIN TEMP:  52; 6HR MAX TEMP:  60;

TOPEKA FORBES  CLEAR     52  51  97 CALM      30.04R FOG
6HR MIN TEMP:  51; 6HR MAX TEMP:  62;

$$



USA.gov is the U.S. government's official web portal to all federal, state and local government web resources and services.